SCP
-0 -0 -0 -0 -0 0 0 0 -0 -0 -0 -0 -0 -0 -0 -0 0 0 0 0 0 -0 0 0 0 0 0 0 0 0 0 0 0 0 0 0 0 0 0 0 0 0 0 0 0
-0 -0 -0 -0 -0 -0 -0 -0 -0 -0 -0 -0 -0 -0 0 -0 0 0 0 -0 -0 -0 0 0 0 0 0 0 0 0 0 0 0 0 0 0 0 0 0 0 0 0 0 0 0
-0 -0 -0 -0 -0 -0 -0 0 -0 -0 -0 0 0 -0 0 0 0 0 -0 -0 -0 -0 0 0 0 0 0 0 0 0 0 0 0 0 0 0 0 0 0 0 0 0 0 0 0
-0 -0 -0 -0 -0 -0 -0 -0 -0 0 0 0 0 -0 0 -0 0 0 -0 -0 -0 -0 0 0 0 0 0 0 0 0 0 0 0 0 0 0 0 0 0 0 0 0 0 0 0
-0 -0 -0 -0 -0 -0 0 0 -0 -0 0 0 0 0 0 -0 0 -0 -0 -0 0 0 -0 0 0 0 0 0 0 0 0 0 0 0 0 0 0 0 0 0 0 0 0 0 0
0 -0 -0 -0 -0 -0 -0 -0 0 0 0 0 0 0 0 0 0 0 0 0 -0 0 0 0 0 0 0 0 0 0 0 0 0 0 0 0 0 0 0 0 0 0 0 0 0
0 -0 -0 -0 -0 0 -0 -0 -0 0 0 0 0 0 0 0 0 0 0 -0 0 -0 0 0 0 0 0 0 0 0 0 0 0 0 0 0 0 0 0 0 0 0 0 0 0
0 -0 -0 -0 -0 0 0 0 -0 0 -0 0 0 -0 -0 0 0 -0 -0 -0 -0 -0 -0 0 0 0 0 0 0 0 0 0 0 0 0 0 0 0 0 0 0 0 0 0 0
0 -0 -0 -0 -0 -0 0 0 0 -0 -0 0 0 0 -0 0 0 0 0 -0 -0 -0 -0 0 -0 0 -0 0 -0 0 0 0 0 0 0 0 0 0 0 0 0 0 0 0 0
-0 -0 -0 -0 -0 -0 -0 0 0 0 -0 0 0 0 0 0 0 0 0 0 -0 -0 0 -0 -0 -0 -0 -0 -0 -0 -0 -0 0 0 0 0 0 0 0 0 0 0 0 0 0
-0 -0 -0 -0 -0 -0 -0 -0 -0 0 0 0 0 -0 0 0 0 0 0 0 0 -0 -0 -0 -0 -0 -0 -0 -0 -0 -0 -0 -0 -0 -0 -0 0 0 0 0 0 0 0 0 0
-0 -0 -0 -0 0 -0 -0 0 -0 -0 0 0 0 0 0 0 0 -0 0 0 0 0 -0 -0 -0 -0 -0 0 -0 -0 -0 -0 0 -0 -0 -0 0 0 0 0 0 0 0 0 0
0 -0 -0 -0 -0 0 0 0 -0 -0 0 0 0 0 0 0 0 0 -0 -0 -0 -0 -0 -0 -0 -0 0 -0 -0 -0 -0 0 0 0 -0 0 0 0 0 0 0 0 0 -0 -0
0 0 -0 -0 -0 0 0 0 0 0 0 0 0 0 0 0 0 0 0 -0 -0 -0 -0 0 0 0 -0 -0 -0 0 0 0 0 0 0 0 0 0 0 0 0 0 0 -0 -0
0 0 0 -0 0 0 0 0 0 0 0 0 -0 0 0 0 0 0 0 -0 0 -0 -0 -0 -0 -0 -0 -0 -0 -0 -0 -0 0 0 0 0 0 0 0 0 0 0 0 -0 -0
0 0 0 -0 0 0 -0 0 0 0 0 0 0 0 0 0 0 0 0 0 0 0 0 -0 -0 0 0 -0 0 -0 -0 0 0 0 0 0 0 0 0 0 0 0 0 -0 -0
0 0 0 0 0 -0 0 0 0 0 0 0 0 0 0 0 0 0 0 0 0 0 0 -0 -0 -0 0 -0 -0 0 0 0 0 0 0 0 0 -0 0 0 0 0 0 -0 -0
0 0 0 0 0 0 0 0 0 0 0 0 0 0 0 0 0 0 0 0 0 0 0 0 0 0 0 0 -0 0 0 0 0 0 0 0 0 0 0 0 0 0 0 0 0
0 0 0 0 0 0 0 0 0 0 0 0 0 0 0 0 0 0 0 0 0 0 0 0 0 -0 -0 -0 -0 -0 0 0 0 0 0 0 0 0 0 0 0 0 0 0 0
0 0 0 0 0 0 0 0 0 0 0 0 0 0 0 0 0 0 0 0 0 0 0 0 0 0 0 0 0 0 0 0 0 0 0 0 0 0 0 0 0 0 0 0 0
0 0 0 0 0 0 0 0 0 0 0 0 0 0 0 0 0 0 0 0 0 0 0 0 0 0 0 0 0 0 0 0 0 0 0 0 0 0 0 0 0 0 0 0 0
0 0 0 0 0 0 0 0 0 0 0 0 0 0 0 0 0 0 0 0 0 0 0 0 0 0 0 0 0 0 0 0 0 0 0 0 0 0 0 0 0 0 0 0 0
0 0 0 0 0 0 0 0 0 0 0 0 0 0 0 0 0 0 0 0 0 0 0 0 0 0 0 0 0 0 0 0 0 0 0 0 0 0 0 0 0 0 0 0 0
0 0 0 0 0 0 0 0 0 0 0 0 0 0 0 0 0 0 0 0 0 0 0 0 0 0 0 0 0 0 0 0 0 0 0 0 0 0 0 0 0 0 0 0 0
0 0 0 0 0 0 0 0 0 0 0 0 0 0 0 0 0 0 0 0 0 0 0 0 0 0 0 0 0 0 0 0 0 0 0 0 0 0 0 0 0 0 0 0 0
0 0 0 0 0 0 0 0 0 0 0 0 0 0 0 0 0 0 0 0 0 0 0 0 0 0 0 0 0 0 0 0 0 0 0 0 0 0 0 0 0 0 0 0 0
0 0 0 0 0 0 0 0 0 0 0 0 0 0 0 0 0 0 0 0 0 0 0 0 0 0 0 0 0 0 0 0 0 0 0 0 0 0 0 0 0 0 0 0 0
Wind_Speed_500mb
35 36 37 37 38 39 39 35 27 21 18 15 12 16 20 21 46 33 37 37 34 30 25 22 24 15 18 20 17 21 7 13 12 3 12 36 15 44 47 63 82 46 48 31 45
32 32 33 35 38 38 38 36 34 25 17 11 10 22 16 10 27 52 35 22 24 25 21 24 30 35 19 11 11 8 8 9 13 8 30 54 57 23 37 70 46 72 66 61 63
26 27 30 34 35 33 33 34 28 23 22 14 14 27 17 3 11 45 38 31 30 26 18 20 18 23 20 17 10 7 8 22 18 20 25 40 73 47 13 34 47 48 63 69 73
22 23 26 29 29 29 26 30 42 31 20 12 11 22 31 5 9 40 38 34 31 25 16 26 28 18 12 12 16 18 29 26 13 13 10 15 31 61 63 37 35 48 60 70 78
20 19 22 22 21 24 21 23 22 39 42 40 12 3 23 53 36 29 31 32 27 24 21 20 27 22 11 14 48 24 33 36 42 41 61 71 51 41 43 32 30 44 60 69 73
17 20 20 18 16 16 16 17 27 27 42 47 48 18 18 44 36 30 31 27 28 30 31 27 19 27 24 11 13 23 49 41 32 50 43 63 48 23 33 26 47 57 67 70 73
17 18 19 17 15 14 16 16 18 18 15 28 36 50 81 44 33 25 27 35 34 25 21 21 15 11 21 30 43 52 30 42 41 13 18 20 40 28 24 36 52 58 61 66 69
16 15 17 22 23 13 24 25 29 29 24 19 5 43 32 47 29 14 18 19 25 33 20 21 32 42 18 17 15 11 11 10 21 29 19 15 15 29 26 40 49 50 51 60 68
12 14 18 24 29 33 17 6 7 3 22 32 31 9 17 33 47 39 35 22 14 16 33 24 41 29 18 9 10 17 8 12 8 49 5 15 17 24 28 39 44 43 46 49 61
6 13 12 15 17 40 44 53 42 4 4 9 50 13 37 41 55 38 31 23 21 9 20 35 29 12 14 14 3 5 9 13 13 15 36 36 24 21 27 36 37 38 43 49 58
8 10 10 8 16 15 11 10 4 26 78 51 35 25 42 19 52 35 38 45 48 51 16 48 28 16 13 12 9 12 10 14 6 4 15 18 19 13 23 32 33 42 46 49 50
11 8 17 12 9 13 10 7 15 25 37 39 45 45 33 40 27 49 43 34 47 21 6 14 25 14 9 10 17 15 10 10 1 11 13 15 14 10 15 19 30 35 39 42 46
15 8 15 17 14 14 13 30 25 16 15 23 34 39 38 28 33 54 35 13 20 28 32 22 8 18 8 22 15 9 12 5 6 5 13 13 8 7 7 16 24 31 32 34 41
12 14 9 13 16 23 27 20 7 6 10 27 28 26 39 6 16 37 40 11 16 6 7 17 19 10 14 14 10 5 6 2 7 6 6 1 6 6 8 6 16 21 27 30 36
13 16 16 12 12 13 17 14 4 2 10 17 15 19 30 22 9 43 25 46 17 11 8 3 15 15 14 8 9 1 7 7 4 8 7 8 8 8 9 6 5 10 17 23 32
11 13 11 16 13 12 17 10 1 13 5 7 13 20 11 28 17 21 25 20 13 16 20 7 6 8 6 10 5 13 4 10 8 5 6 7 8 6 8 9 8 3 8 19 27
6 12 11 10 10 12 12 5 11 13 7 10 7 9 7 13 15 23 11 20 10 9 13 9 7 10 12 9 10 18 11 6 9 8 7 4 6 12 8 6 12 8 3 17 24
5 5 9 10 11 8 9 10 14 6 10 1 3 3 10 12 9 15 6 10 13 11 7 7 10 15 27 7 4 10 7 8 6 3 9 12 8 8 10 19 14 5 2 15 30
11 4 2 7 6 5 6 11 16 14 10 13 5 6 7 4 6 10 11 3 8 9 10 6 3 8 8 9 4 9 11 6 14 2 6 7 11 1 11 11 14 9 5 14 55
15 10 4 1 3 2 10 8 5 5 10 4 8 5 5 5 5 9 2 4 2 11 4 5 5 5 8 5 18 11 8 5 7 4 8 9 11 8 11 15 14 12 15 33 64
14 9 8 6 3 2 8 10 7 9 6 6 8 8 4 6 6 3 3 4 2 4 10 5 7 5 3 9 3 8 4 11 9 6 8 2 12 12 7 9 14 13 18 61 61
13 3 8 10 4 11 6 13 12 12 7 5 7 6 8 8 5 5 6 6 9 7 6 2 8 3 2 10 9 4 7 7 9 8 2 5 13 5 8 13 8 12 58 57 59
8 9 12 18 7 1 2 5 6 10 10 8 6 4 3 8 6 3 4 6 14 7 10 11 2 6 12 10 8 3 7 8 9 6 10 10 11 5 14 18 28 43 57 55 58
10 2 6 10 11 20 13 6 6 7 11 10 9 9 8 5 6 10 5 10 13 7 12 8 4 11 12 11 6 6 7 8 12 7 7 17 13 24 24 23 47 61 58 56 52
14 7 11 5 3 14 9 11 12 11 7 16 3 10 13 7 4 5 4 6 8 13 11 9 6 3 6 12 6 14 21 18 17 12 14 11 15 30 29 35 48 60 59 53 48
14 12 12 8 22 18 2 14 21 10 18 10 9 18 13 14 15 18 14 9 10 14 10 5 4 4 8 9 7 20 32 29 29 34 36 44 48 66 71 66 53 49 56 50 46
29 20 13 9 12 9 11 15 19 31 22 8 27 15 10 14 14 2 17 12 19 17 10 11 9 6 10 7 12 17 19 26 14 10 27 27 28 24 19 37 46 53 55 52 53
Wind_Direction_500mb
49 54 56 62 70 69 62 59 62 81 99 108 58 29 26 30 34 57 40 11 355 356 15 35 40 50 78 80 95 100 105 154 164 71 80 21 50 54 60 66 56 60 53 25 30
55 60 64 69 73 69 65 62 60 64 77 87 14 351 344 5 28 43 37 31 18 8 23 41 49 55 64 66 66 56 118 118 80 97 92 58 47 58 51 36 34 37 46 45 44
59 67 73 76 76 71 66 61 56 60 62 62 38 3 348 289 339 14 27 26 15 13 27 29 49 64 57 57 28 49 89 102 76 104 131 85 59 51 56 47 38 33 30 39 44
60 72 84 83 76 70 65 73 55 62 48 19 4 43 50 140 59 10 24 23 23 22 45 49 74 69 63 51 49 95 72 84 65 70 91 64 85 63 61 69 56 54 48 45 43
60 78 89 91 85 76 64 55 68 65 51 40 10 188 50 61 17 22 31 42 48 45 51 53 54 61 64 74 81 78 77 87 94 80 78 72 78 75 53 51 52 53 50 49 49
61 85 92 95 95 73 57 67 96 74 58 55 60 86 92 56 23 29 34 42 49 51 59 70 66 84 67 83 75 116 82 69 108 92 85 76 51 51 36 48 51 50 53 50 47
66 87 97 88 70 89 84 91 56 33 71 60 55 63 64 41 35 36 36 42 36 29 47 56 64 95 95 83 95 114 94 61 20 26 133 91 45 55 54 66 64 58 54 51 50
67 93 104 85 56 124 106 103 61 62 49 46 347 49 67 42 43 67 54 43 38 34 57 83 85 83 61 113 46 40 50 65 15 9 19 82 58 51 54 66 62 57 52 52 48
65 89 108 121 72 76 92 239 252 114 44 35 47 79 38 32 45 41 24 22 8 41 67 101 91 54 55 46 38 21 71 40 32 11 93 73 101 57 56 62 60 53 50 47 44
85 66 109 148 126 92 84 67 62 222 235 27 39 72 24 11 28 37 30 35 55 104 54 55 52 57 29 34 79 0 89 61 52 5 67 82 91 65 62 66 63 58 51 46 42
65 75 80 142 191 201 236 319 18 48 63 68 58 76 30 40 41 36 34 67 68 64 42 33 58 35 337 29 94 93 80 93 39 64 64 79 88 67 61 62 56 53 50 47 42
39 66 55 70 141 184 210 299 124 124 77 51 45 46 39 33 38 40 56 61 51 49 26 47 48 334 316 36 67 51 89 24 338 22 82 114 91 84 66 59 60 50 45 39 34
46 86 69 76 99 121 155 139 122 107 75 30 29 23 11 32 39 13 27 50 60 50 55 78 308 333 46 34 30 51 77 356 111 51 51 143 134 139 79 82 66 54 49 42 34
58 66 107 91 92 123 141 146 120 108 75 339 358 21 5 41 56 22 33 40 46 89 67 70 4 26 38 59 9 62 30 199 146 107 160 230 267 218 174 108 67 51 43 39 34
65 68 78 87 110 149 154 159 105 97 49 326 351 355 19 65 336 20 36 69 65 14 78 0 359 9 30 357 350 241 339 151 115 98 92 343 71 280 152 184 131 58 41 36 28
68 73 85 82 98 125 156 158 102 43 254 3 346 359 24 21 21 356 39 68 58 60 50 55 23 42 308 304 320 303 138 48 52 60 39 259 117 256 202 195 146 114 32 25 20
81 64 73 94 100 123 138 159 36 104 337 301 343 10 83 7 8 17 30 39 44 58 14 352 19 340 12 352 7 25 45 353 3 14 203 317 36 245 209 158 157 180 22 19 12
190 74 74 76 68 106 129 56 73 243 224 148 353 32 72 11 25 5 44 35 29 43 68 56 351 9 348 62 299 24 98 130 215 322 282 325 251 265 189 160 167 193 331 18 8
213 218 65 56 52 73 117 56 192 201 148 146 74 69 3 31 100 53 37 67 6 35 112 82 69 333 15 18 48 309 46 144 105 99 39 282 285 37 130 182 206 227 294 342 342
222 219 240 325 26 87 73 188 158 175 122 122 151 144 171 300 60 58 13 272 97 26 129 197 60 20 304 0 33 81 142 44 13 44 308 299 280 246 220 222 244 269 302 320 334
210 202 239 220 186 77 136 200 164 167 158 134 163 124 161 139 97 133 186 272 179 67 70 115 99 285 18 25 0 357 44 56 111 112 163 283 269 217 239 224 227 257 305 324 329
202 187 216 191 100 55 119 171 137 152 151 115 109 112 154 159 115 134 180 195 161 147 104 87 138 105 167 285 266 240 186 123 117 263 199 150 271 262 242 230 224 291 316 324 326
216 193 193 185 132 338 99 98 149 139 173 153 120 115 123 145 89 180 169 163 161 146 168 182 350 16 347 353 346 211 186 118 99 73 208 144 260 184 233 278 285 302 316 320 328
194 60 180 180 145 137 141 188 131 154 152 146 122 117 98 113 50 184 184 190 184 146 132 126 106 167 192 202 153 255 213 158 133 127 197 233 278 285 279 284 294 307 310 315 320
200 196 176 216 232 131 122 125 139 167 180 169 117 189 160 121 71 203 245 154 177 183 148 131 184 133 268 242 245 246 243 194 199 174 185 247 220 259 271 282 285 293 297 306 312
190 170 152 89 135 119 261 216 162 173 152 219 200 174 165 153 184 193 146 190 191 175 146 144 245 93 307 336 331 269 258 238 230 233 241 255 270 267 272 277 276 283 293 294 300
203 192 171 148 144 113 205 178 192 151 197 183 180 126 178 211 163 295 157 168 171 150 146 134 126 77 269 331 328 296 248 211 187 200 215 229 236 256 257 264 270 283 288 289 291
Wind_Speed_850mb
35 36 37 37 38 39 39 35 27 21 18 15 12 16 20 21 46 33 37 37 34 30 25 22 24 15 18 20 17 21 7 13 12 3 12 36 15 44 47 63 82 46 48 31 45
32 32 33 35 38 38 38 36 34 25 17 11 10 22 16 10 27 52 35 22 24 25 21 24 30 35 19 11 11 8 8 9 13 8 30 54 57 23 37 70 46 72 66 61 63
26 27 30 34 35 33 33 34 28 23 22 14 14 27 17 3 11 45 38 31 30 26 18 20 18 23 20 17 10 7 8 22 18 20 25 40 73 47 13 34 47 48 63 69 73
22 23 26 29 29 29 26 30 42 31 20 12 11 22 31 5 9 40 38 34 31 25 16 26 28 18 12 12 16 18 29 26 13 13 10 15 31 61 63 37 35 48 60 70 78
20 19 22 22 21 24 21 23 22 39 42 40 12 3 23 53 36 29 31 32 27 24 21 20 27 22 11 14 48 24 33 36 42 41 61 71 51 41 43 32 30 44 60 69 73
17 20 20 18 16 16 16 17 27 27 42 47 48 18 18 44 36 30 31 27 28 30 31 27 19 27 24 11 13 23 49 41 32 50 43 63 48 23 33 26 47 57 67 70 73
17 18 19 17 15 14 16 16 18 18 15 28 36 50 81 44 33 25 27 35 34 25 21 21 15 11 21 30 43 52 30 42 41 13 18 20 40 28 24 36 52 58 61 66 69
16 15 17 22 23 13 24 25 29 29 24 19 5 43 32 47 29 14 18 19 25 33 20 21 32 42 18 17 15 11 11 10 21 29 19 15 15 29 26 40 49 50 51 60 68
12 14 18 24 29 33 17 6 7 3 22 32 31 9 17 33 47 39 35 22 14 16 33 24 41 29 18 9 10 17 8 12 8 49 5 15 17 24 28 39 44 43 46 49 61
6 13 12 15 17 40 44 53 42 4 4 9 50 13 37 41 55 38 31 23 21 9 20 35 29 12 14 14 3 5 9 13 13 15 36 36 24 21 27 36 37 38 43 49 58
8 10 10 8 16 15 11 10 4 26 78 51 35 25 42 19 52 35 38 45 48 51 16 48 28 16 13 12 9 12 10 14 6 4 15 18 19 13 23 32 33 42 46 49 50
11 8 17 12 9 13 10 7 15 25 37 39 45 45 33 40 27 49 43 34 47 21 6 14 25 14 9 10 17 15 10 10 1 11 13 15 14 10 15 19 30 35 39 42 46
15 8 15 17 14 14 13 30 25 16 15 23 34 39 38 28 33 54 35 13 20 28 32 22 8 18 8 22 15 9 12 5 6 5 13 13 8 7 7 16 24 31 32 34 41
12 14 9 13 16 23 27 20 7 6 10 27 28 26 39 6 16 37 40 11 16 6 7 17 19 10 14 14 10 5 6 2 7 6 6 1 6 6 8 6 16 21 27 30 36
13 16 16 12 12 13 17 14 4 2 10 17 15 19 30 22 9 43 25 46 17 11 8 3 15 15 14 8 9 1 7 7 4 8 7 8 8 8 9 6 5 10 17 23 32
11 13 11 16 13 12 17 10 1 13 5 7 13 20 11 28 17 21 25 20 13 16 20 7 6 8 6 10 5 13 4 10 8 5 6 7 8 6 8 9 8 3 8 19 27
6 12 11 10 10 12 12 5 11 13 7 10 7 9 7 13 15 23 11 20 10 9 13 9 7 10 12 9 10 18 11 6 9 8 7 4 6 12 8 6 12 8 3 17 24
5 5 9 10 11 8 9 10 14 6 10 1 3 3 10 12 9 15 6 10 13 11 7 7 10 15 27 7 4 10 7 8 6 3 9 12 8 8 10 19 14 5 2 15 30
11 4 2 7 6 5 6 11 16 14 10 13 5 6 7 4 6 10 11 3 8 9 10 6 3 8 8 9 4 9 11 6 14 2 6 7 11 1 11 11 14 9 5 14 55
15 10 4 1 3 2 10 8 5 5 10 4 8 5 5 5 5 9 2 4 2 11 4 5 5 5 8 5 18 11 8 5 7 4 8 9 11 8 11 15 14 12 15 33 64
14 9 8 6 3 2 8 10 7 9 6 6 8 8 4 6 6 3 3 4 2 4 10 5 7 5 3 9 3 8 4 11 9 6 8 2 12 12 7 9 14 13 18 61 61
13 3 8 10 4 11 6 13 12 12 7 5 7 6 8 8 5 5 6 6 9 7 6 2 8 3 2 10 9 4 7 7 9 8 2 5 13 5 8 13 8 12 58 57 59
8 9 12 18 7 1 2 5 6 10 10 8 6 4 3 8 6 3 4 6 14 7 10 11 2 6 12 10 8 3 7 8 9 6 10 10 11 5 14 18 28 43 57 55 58
10 2 6 10 11 20 13 6 6 7 11 10 9 9 8 5 6 10 5 10 13 7 12 8 4 11 12 11 6 6 7 8 12 7 7 17 13 24 24 23 47 61 58 56 52
14 7 11 5 3 14 9 11 12 11 7 16 3 10 13 7 4 5 4 6 8 13 11 9 6 3 6 12 6 14 21 18 17 12 14 11 15 30 29 35 48 60 59 53 48
14 12 12 8 22 18 2 14 21 10 18 10 9 18 13 14 15 18 14 9 10 14 10 5 4 4 8 9 7 20 32 29 29 34 36 44 48 66 71 66 53 49 56 50 46
29 20 13 9 12 9 11 15 19 31 22 8 27 15 10 14 14 2 17 12 19 17 10 11 9 6 10 7 12 17 19 26 14 10 27 27 28 24 19 37 46 53 55 52 53
Wind_Direction_850mb
49 54 56 62 70 69 62 59 62 81 99 108 58 29 26 30 34 57 40 11 355 356 15 35 40 50 78 80 95 100 105 154 164 71 80 21 50 54 60 66 56 60 53 25 30
55 60 64 69 73 69 65 62 60 64 77 87 14 351 344 5 28 43 37 31 18 8 23 41 49 55 64 66 66 56 118 118 80 97 92 58 47 58 51 36 34 37 46 45 44
59 67 73 76 76 71 66 61 56 60 62 62 38 3 348 289 339 14 27 26 15 13 27 29 49 64 57 57 28 49 89 102 76 104 131 85 59 51 56 47 38 33 30 39 44
60 72 84 83 76 70 65 73 55 62 48 19 4 43 50 140 59 10 24 23 23 22 45 49 74 69 63 51 49 95 72 84 65 70 91 64 85 63 61 69 56 54 48 45 43
60 78 89 91 85 76 64 55 68 65 51 40 10 188 50 61 17 22 31 42 48 45 51 53 54 61 64 74 81 78 77 87 94 80 78 72 78 75 53 51 52 53 50 49 49
61 85 92 95 95 73 57 67 96 74 58 55 60 86 92 56 23 29 34 42 49 51 59 70 66 84 67 83 75 116 82 69 108 92 85 76 51 51 36 48 51 50 53 50 47
66 87 97 88 70 89 84 91 56 33 71 60 55 63 64 41 35 36 36 42 36 29 47 56 64 95 95 83 95 114 94 61 20 26 133 91 45 55 54 66 64 58 54 51 50
67 93 104 85 56 124 106 103 61 62 49 46 347 49 67 42 43 67 54 43 38 34 57 83 85 83 61 113 46 40 50 65 15 9 19 82 58 51 54 66 62 57 52 52 48
65 89 108 121 72 76 92 239 252 114 44 35 47 79 38 32 45 41 24 22 8 41 67 101 91 54 55 46 38 21 71 40 32 11 93 73 101 57 56 62 60 53 50 47 44
85 66 109 148 126 92 84 67 62 222 235 27 39 72 24 11 28 37 30 35 55 104 54 55 52 57 29 34 79 0 89 61 52 5 67 82 91 65 62 66 63 58 51 46 42
65 75 80 142 191 201 236 319 18 48 63 68 58 76 30 40 41 36 34 67 68 64 42 33 58 35 337 29 94 93 80 93 39 64 64 79 88 67 61 62 56 53 50 47 42
39 66 55 70 141 184 210 299 124 124 77 51 45 46 39 33 38 40 56 61 51 49 26 47 48 334 316 36 67 51 89 24 338 22 82 114 91 84 66 59 60 50 45 39 34
46 86 69 76 99 121 155 139 122 107 75 30 29 23 11 32 39 13 27 50 60 50 55 78 308 333 46 34 30 51 77 356 111 51 51 143 134 139 79 82 66 54 49 42 34
58 66 107 91 92 123 141 146 120 108 75 339 358 21 5 41 56 22 33 40 46 89 67 70 4 26 38 59 9 62 30 199 146 107 160 230 267 218 174 108 67 51 43 39 34
65 68 78 87 110 149 154 159 105 97 49 326 351 355 19 65 336 20 36 69 65 14 78 0 359 9 30 357 350 241 339 151 115 98 92 343 71 280 152 184 131 58 41 36 28
68 73 85 82 98 125 156 158 102 43 254 3 346 359 24 21 21 356 39 68 58 60 50 55 23 42 308 304 320 303 138 48 52 60 39 259 117 256 202 195 146 114 32 25 20
81 64 73 94 100 123 138 159 36 104 337 301 343 10 83 7 8 17 30 39 44 58 14 352 19 340 12 352 7 25 45 353 3 14 203 317 36 245 209 158 157 180 22 19 12
190 74 74 76 68 106 129 56 73 243 224 148 353 32 72 11 25 5 44 35 29 43 68 56 351 9 348 62 299 24 98 130 215 322 282 325 251 265 189 160 167 193 331 18 8
213 218 65 56 52 73 117 56 192 201 148 146 74 69 3 31 100 53 37 67 6 35 112 82 69 333 15 18 48 309 46 144 105 99 39 282 285 37 130 182 206 227 294 342 342
222 219 240 325 26 87 73 188 158 175 122 122 151 144 171 300 60 58 13 272 97 26 129 197 60 20 304 0 33 81 142 44 13 44 308 299 280 246 220 222 244 269 302 320 334
210 202 239 220 186 77 136 200 164 167 158 134 163 124 161 139 97 133 186 272 179 67 70 115 99 285 18 25 0 357 44 56 111 112 163 283 269 217 239 224 227 257 305 324 329
202 187 216 191 100 55 119 171 137 152 151 115 109 112 154 159 115 134 180 195 161 147 104 87 138 105 167 285 266 240 186 123 117 263 199 150 271 262 242 230 224 291 316 324 326
216 193 193 185 132 338 99 98 149 139 173 153 120 115 123 145 89 180 169 163 161 146 168 182 350 16 347 353 346 211 186 118 99 73 208 144 260 184 233 278 285 302 316 320 328
194 60 180 180 145 137 141 188 131 154 152 146 122 117 98 113 50 184 184 190 184 146 132 126 106 167 192 202 153 255 213 158 133 127 197 233 278 285 279 284 294 307 310 315 320
200 196 176 216 232 131 122 125 139 167 180 169 117 189 160 121 71 203 245 154 177 183 148 131 184 133 268 242 245 246 243 194 199 174 185 247 220 259 271 282 285 293 297 306 312
190 170 152 89 135 119 261 216 162 173 152 219 200 174 165 153 184 193 146 190 191 175 146 144 245 93 307 336 331 269 258 238 230 233 241 255 270 267 272 277 276 283 293 294 300
203 192 171 148 144 113 205 178 192 151 197 183 180 126 178 211 163 295 157 168 171 150 146 134 126 77 269 331 328 296 248 211 187 200 215 229 236 256 257 264 270 283 288 289 291